DECAYED

DMSP 5D-2 F13 DEB, 40680 (Decayed)

Orbit data source: Space-Track

DMSP 5D-2 F13 DEB, 40680 was space debris in LEO originally from a launch on Fri, 24 Mar 1995 UTC launched from the Air Force Western Test Range (AFWTR). Debris objects in space refer to the collection of defunct objects orbiting the Earth. Examples of debris include non-operational satellites, rocket bodies, and fragments generated from explosions, collisions, or faulty payload assembly.

Not visible in the next 10 days
DMSP 5D-2 F13 DEB details
Identifier
40680, 1995-015FU
Orbit
Decayed
Last TLE update2 weeks ago
Origin
Flag of USUSAF SMC (US)
ManufacturerUnknown
MissionDecayed spacecraft
Bus & MotorUnknown
MassUnknown
Launch date (UTC)
1995-03-24 (30 years ago)
Launch vehicleUnknown
Launch site
Air Force Western Test Range (AFWTR)
Object type
Payload
Rocket body
Debris
Shape & HBRUnknown
Radar Cross SectionSmall (<0.1 m²)

Expand to show TLE details & history

TLE from 2 weeks ago
0 DMSP 5D-2 F13 DEB
1 40680U 95015FU  24327.05060646  .04397034  00000-0  41244-1 0  9999
2 40680  98.7129  54.9978 0025017 323.9845  35.9722 15.62575510501019
Epoch: 2024-11-22T01:12Z
Definitive object data (Epoch: 2024-11-22T01:12:52.398Z)
Latitude-0.00004°
Longitude-24.74407°
Altitude369.655 km
Speed7.696 km/s
True Right ascension03h 39m 59s
True Declination0° 00' 00"
Sunlit
Object was in full shadow at TLE epoch
Visualization observer readout
Observer readout values are unavailable because the object's trajectory could not be propagated. This is usually caused when the trajectory data is faulty or the object's orbit has decayed.
Visualization observer readout
Observer readout values are unavailable because the object's trajectory could not be propagated. This is usually caused when the trajectory data is faulty or the object's orbit has decayed.
Orbital elements
Apogee altitude394.092 km
Perigee altitude360.292 km
Semi-major axis6,755.329 km
Eccentricity0.0025017
Inclination98.7129°
RAAN54.9978°
Arg. of periapsis323.9845°
True anomaly36.14102°
Mean anomaly35.9722°
Eccentric anomaly36.05657°
Mean motion3.90907 °/min
BSTAR0.041244
Orbital period92.09 mins
Loading maneuver chart data...

DMSP 5D-2 F13 DEB Visibility forecast

Observer location: undefined°, undefined

This satellite is decayed
Span
Click to sort rows by Start time (UTC) header in descending order
Start Az.
Max El. time (UTC)
Max El. Az.
Max El.
End time (UTC)
End Az.
|